Time,TemperatureF,DewpointF,PressureIn,WindDirection,WindDirectionDegrees,WindSpeedMPH,WindSpeedGustMPH,Humidity,HourlyPrecipIn,Conditions,Clouds,dailyrainin,SoftwareType,DateUTC
2013-01-20 00:02:00,-999.0,-99.9,29.90,ENE,60,18.0,27.0,-999,-99.99,,,-99.99,,2013-01-20 09:02:00,
2013-01-20 00:12:00,28.0,-99.9,29.90,ENE,60,17.0,27.0,-999,-99.99,,,-99.99,,2013-01-20 09:12:00,
2013-01-20 00:22:00,-999.0,-99.9,29.89,ENE,61,22.0,28.0,-999,-99.99,,,-99.99,,2013-01-20 09:22:00,
2013-01-20 00:33:00,-999.0,-99.9,29.88,ENE,59,21.0,33.0,-999,-99.99,,,-99.99,,2013-01-20 09:33:00,
2013-01-20 00:43:00,-999.0,-99.9,29.89,ENE,57,19.0,27.0,-999,-99.99,,,-99.99,,2013-01-20 09:43:00,
2013-01-20 00:53:00,-999.0,-99.9,29.90,ENE,60,17.0,28.0,-999,-99.99,,,-99.99,,2013-01-20 09:53:00,
2013-01-20 01:03:00,-999.0,-99.9,29.90,ENE,60,22.0,29.0,-999,-99.99,,,-99.99,,2013-01-20 10:03:00,
2013-01-20 01:12:00,-999.0,-99.9,29.90,ENE,58,24.0,32.0,-999,-99.99,,,-99.99,,2013-01-20 10:12:00,
2013-01-20 01:23:00,27.0,-99.9,29.89,ENE,62,22.0,30.0,-999,-99.99,,,-99.99,,2013-01-20 10:23:00,
2013-01-20 01:33:00,-999.0,-99.9,29.89,ENE,64,24.0,30.0,-999,-99.99,,,-99.99,,2013-01-20 10:33:00,
2013-01-20 01:42:00,27.0,-99.9,29.89,ENE,61,16.0,29.0,-999,-99.99,,,-99.99,,2013-01-20 10:42:00,
2013-01-20 01:53:00,-999.0,-99.9,29.89,NE,56,23.0,33.0,-999,-99.99,,,-99.99,,2013-01-20 10:53:00,
2013-01-20 02:03:00,-999.0,-99.9,29.89,ENE,57,20.0,30.0,-999,-99.99,,,-99.99,,2013-01-20 11:03:00,
2013-01-20 02:12:00,-999.0,-99.9,29.88,NE,55,26.0,31.0,-999,-99.99,,,-99.99,,2013-01-20 11:12:00,
2013-01-20 02:22:00,27.0,-99.9,29.89,ENE,58,19.0,29.0,-999,-99.99,,,-99.99,,2013-01-20 11:22:00,
2013-01-20 02:33:00,-999.0,-99.9,29.88,NE,51,25.0,30.0,-999,-99.99,,,-99.99,,2013-01-20 11:33:00,
2013-01-20 02:43:00,-999.0,-99.9,29.88,NE,55,22.0,32.0,-999,-99.99,,,-99.99,,2013-01-20 11:43:00,
2013-01-20 02:54:00,27.0,-99.9,29.88,ENE,59,21.0,29.0,-999,-99.99,,,-99.99,,2013-01-20 11:54:00,
2013-01-20 03:03:00,-999.0,-99.9,29.88,NE,56,22.0,33.0,-999,-99.99,,,-99.99,,2013-01-20 12:03:00,
2013-01-20 03:13:00,27.0,-99.9,29.87,ENE,62,22.0,30.0,-999,-99.99,,,-99.99,,2013-01-20 12:13:00,
2013-01-20 03:23:00,-999.0,-99.9,29.86,ENE,61,24.0,35.0,-999,-99.99,,,-99.99,,2013-01-20 12:23:00,
2013-01-20 03:34:00,-999.0,-99.9,29.85,ENE,63,26.0,33.0,-999,-99.99,,,-99.99,,2013-01-20 12:34:00,
2013-01-20 03:43:00,-999.0,-99.9,29.85,ENE,64,25.0,35.0,-999,-99.99,,,-99.99,,2013-01-20 12:43:00,
2013-01-20 03:53:00,28.0,-99.9,29.85,ENE,67,24.0,32.0,-999,-99.99,,,-99.99,,2013-01-20 12:53:00,
2013-01-20 04:03:00,-999.0,-99.9,29.85,ENE,64,24.0,32.0,-999,-99.99,,,-99.99,,2013-01-20 13:03:00,
2013-01-20 04:12:00,-999.0,-99.9,29.85,ENE,58,25.0,36.0,-999,-99.99,,,-99.99,,2013-01-20 13:12:00,
2013-01-20 04:23:00,28.0,-99.9,29.86,ENE,59,28.0,34.0,-999,-99.99,,,-99.99,,2013-01-20 13:23:00,
2013-01-20 04:33:00,-999.0,-99.9,29.86,ENE,63,24.0,34.0,-999,-99.99,,,-99.99,,2013-01-20 13:33:00,
2013-01-20 04:43:00,28.0,-99.9,29.86,ENE,63,22.0,35.0,-999,-99.99,,,-99.99,,2013-01-20 13:43:00,
2013-01-20 04:53:00,-999.0,-99.9,29.86,ENE,64,25.0,31.0,-999,-99.99,,,-99.99,,2013-01-20 13:53:00,
2013-01-20 05:03:00,-999.0,-99.9,29.86,ENE,61,23.0,32.0,-999,-99.99,,,-99.99,,2013-01-20 14:03:00,
2013-01-20 05:12:00,-999.0,-99.9,29.85,ENE,66,25.0,33.0,-999,-99.99,,,-99.99,,2013-01-20 14:12:00,
2013-01-20 05:23:00,28.0,-99.9,29.85,ENE,64,25.0,31.0,-999,-99.99,,,-99.99,,2013-01-20 14:23:00,
2013-01-20 05:33:00,-999.0,-99.9,29.85,ENE,62,25.0,32.0,-999,-99.99,,,-99.99,,2013-01-20 14:33:00,
2013-01-20 05:43:00,-999.0,-99.9,29.86,ENE,63,21.0,32.0,-999,-99.99,,,-99.99,,2013-01-20 14:43:00,
2013-01-20 05:53:00,29.0,-99.9,29.85,ENE,63,23.0,34.0,-999,-99.99,,,-99.99,,2013-01-20 14:53:00,
2013-01-20 06:04:00,-999.0,-99.9,29.85,ENE,63,23.0,31.0,-999,-99.99,,,-99.99,,2013-01-20 15:04:00,
2013-01-20 06:13:00,29.0,-99.9,29.85,ENE,60,24.0,31.0,-999,-99.99,,,-99.99,,2013-01-20 15:13:00,
2013-01-20 06:23:00,-999.0,-99.9,29.85,ENE,64,20.0,32.0,-999,-99.99,,,-99.99,,2013-01-20 15:23:00,
2013-01-20 06:33:00,-999.0,-99.9,29.86,ENE,62,22.0,29.0,-999,-99.99,,,-99.99,,2013-01-20 15:33:00,
2013-01-20 06:43:00,-999.0,-99.9,29.86,ENE,58,18.0,26.0,-999,-99.99,,,-99.99,,2013-01-20 15:43:00,
2013-01-20 06:53:00,-999.0,-99.9,29.86,ENE,60,20.0,25.0,-999,-99.99,,,-99.99,,2013-01-20 15:53:00,
2013-01-20 07:03:00,-999.0,-99.9,29.85,ENE,59,21.0,30.0,-999,-99.99,,,-99.99,,2013-01-20 16:03:00,
2013-01-20 07:12:00,-999.0,-99.9,29.85,NE,55,19.0,28.0,-999,-99.99,,,-99.99,,2013-01-20 16:12:00,
2013-01-20 07:23:00,29.0,-99.9,29.86,ENE,57,17.0,24.0,-999,-99.99,,,-99.99,,2013-01-20 16:23:00,
2013-01-20 07:33:00,-999.0,-99.9,29.85,NE,54,18.0,26.0,-999,-99.99,,,-99.99,,2013-01-20 16:33:00,
2013-01-20 07:43:00,29.0,-99.9,29.86,NE,53,16.0,26.0,-999,-99.99,,,-99.99,,2013-01-20 16:43:00,
2013-01-20 07:53:00,-999.0,-99.9,29.85,ENE,57,19.0,27.0,-999,-99.99,,,-99.99,,2013-01-20 16:53:00,
2013-01-20 08:03:00,-999.0,-99.9,29.86,ENE,57,17.0,24.0,-999,-99.99,,,-99.99,,2013-01-20 17:03:00,
2013-01-20 08:13:00,-999.0,-99.9,29.85,NE,52,19.0,28.0,-999,-99.99,,,-99.99,,2013-01-20 17:13:00,
2013-01-20 08:23:00,-999.0,-99.9,29.86,NE,54,19.0,26.0,-999,-99.99,,,-99.99,,2013-01-20 17:23:00,
2013-01-20 08:33:00,-999.0,-99.9,29.85,NE,51,19.0,23.0,-999,-99.99,,,-99.99,,2013-01-20 17:33:00,
2013-01-20 08:43:00,-999.0,-99.9,29.86,NE,56,21.0,27.0,-999,-99.99,,,-99.99,,2013-01-20 17:43:00,
2013-01-20 08:53:00,31.0,-99.9,29.86,NE,54,18.0,23.0,-999,-99.99,,,-99.99,,2013-01-20 17:53:00,
2013-01-20 09:03:00,-999.0,-99.9,29.86,ENE,59,17.0,26.0,-999,-99.99,,,-99.99,,2013-01-20 18:03:00,
2013-01-20 09:13:00,31.0,-99.9,29.86,ENE,59,21.0,27.0,-999,-99.99,,,-99.99,,2013-01-20 18:13:00,
2013-01-20 09:24:00,-999.0,-99.9,29.86,NE,56,19.0,28.0,-999,-99.99,,,-99.99,,2013-01-20 18:24:00,
2013-01-20 09:33:00,-999.0,-99.9,29.86,NE,55,20.0,23.0,-999,-99.99,,,-99.99,,2013-01-20 18:33:00,
2013-01-20 09:43:00,31.0,-99.9,29.86,ENE,61,19.0,25.0,-999,-99.99,,,-99.99,,2013-01-20 18:43:00,
2013-01-20 09:53:00,-999.0,-99.9,29.86,ENE,58,17.0,28.0,-999,-99.99,,,-99.99,,2013-01-20 18:53:00,
2013-01-20 10:03:00,-999.0,-99.9,29.86,ENE,60,20.0,26.0,-999,-99.99,,,-99.99,,2013-01-20 19:03:00,
2013-01-20 10:12:00,-999.0,-99.9,29.86,ENE,58,20.0,25.0,-999,-99.99,,,-99.99,,2013-01-20 19:12:00,
2013-01-20 10:23:00,31.0,-99.9,29.86,ENE,60,18.0,28.0,-999,-99.99,,,-99.99,,2013-01-20 19:23:00,
2013-01-20 10:33:00,-999.0,-99.9,29.86,ENE,61,17.0,23.0,-999,-99.99,,,-99.99,,2013-01-20 19:33:00,
2013-01-20 10:43:00,-999.0,-99.9,29.86,ENE,59,18.0,23.0,-999,-99.99,,,-99.99,,2013-01-20 19:43:00,
2013-01-20 10:53:00,30.0,-99.9,29.86,ENE,63,19.0,24.0,-999,-99.99,,,-99.99,,2013-01-20 19:53:00,
2013-01-20 11:03:00,-999.0,-99.9,29.86,ENE,60,17.0,27.0,-999,-99.99,,,-99.99,,2013-01-20 20:03:00,
2013-01-20 11:12:00,30.0,-99.9,29.86,ENE,59,17.0,23.0,-999,-99.99,,,-99.99,,2013-01-20 20:12:00,
2013-01-20 11:23:00,-999.0,-99.9,29.86,NE,56,17.0,23.0,-999,-99.99,,,-99.99,,2013-01-20 20:23:00,
2013-01-20 11:33:00,-999.0,-99.9,29.86,NE,56,17.0,23.0,-999,-99.99,,,-99.99,,2013-01-20 20:33:00,
2013-01-20 11:43:00,-999.0,-99.9,29.86,NE,51,17.0,22.0,-999,-99.99,,,-99.99,,2013-01-20 20:43:00,
2013-01-20 11:54:00,29.0,-99.9,29.86,NE,52,15.0,21.0,-999,-99.99,,,-99.99,,2013-01-20 20:54:00,
2013-01-20 12:04:00,-999.0,-99.9,29.87,NE,56,15.0,19.0,-999,-99.99,,,-99.99,,2013-01-20 21:04:00,
2013-01-20 12:13:00,-999.0,-99.9,29.87,ENE,58,15.0,25.0,-999,-99.99,,,-99.99,,2013-01-20 21:13:00,
2013-01-20 12:23:00,29.0,-99.9,29.87,NE,56,15.0,22.0,-999,-99.99,,,-99.99,,2013-01-20 21:23:00,
2013-01-20 12:34:00,-999.0,-99.9,29.87,NE,54,15.0,20.0,-999,-99.99,,,-99.99,,2013-01-20 21:34:00,
2013-01-20 12:43:00,29.0,-99.9,29.87,NE,51,15.0,20.0,-999,-99.99,,,-99.99,,2013-01-20 21:43:00,
2013-01-20 12:53:00,-999.0,-99.9,29.87,NE,50,17.0,21.0,-999,-99.99,,,-99.99,,2013-01-20 21:53:00,
2013-01-20 13:03:00,-999.0,-99.9,29.87,NE,54,13.0,19.0,-999,-99.99,,,-99.99,,2013-01-20 22:03:00,
2013-01-20 13:13:00,-999.0,-99.9,29.87,NE,53,13.0,18.0,-999,-99.99,,,-99.99,,2013-01-20 22:13:00,
2013-01-20 13:23:00,-999.0,-99.9,29.87,ENE,57,15.0,19.0,-999,-99.99,,,-99.99,,2013-01-20 22:23:00,
2013-01-20 13:33:00,-999.0,-99.9,29.87,ENE,59,13.0,16.0,-999,-99.99,,,-99.99,,2013-01-20 22:33:00,
2013-01-20 13:43:00,-999.0,-99.9,29.86,ENE,58,14.0,19.0,-999,-99.99,,,-99.99,,2013-01-20 22:43:00,
2013-01-20 13:53:00,29.0,-99.9,29.86,ENE,58,13.0,17.0,-999,-99.99,,,-99.99,,2013-01-20 22:53:00,
2013-01-20 14:03:00,-999.0,-99.9,29.86,NE,55,13.0,20.0,-999,-99.99,,,-99.99,,2013-01-20 23:03:00,
2013-01-20 14:13:00,29.0,-99.9,29.86,ENE,57,14.0,20.0,-999,-99.99,,,-99.99,,2013-01-20 23:13:00,
2013-01-20 14:23:00,-999.0,-99.9,29.86,ENE,57,15.0,19.0,-999,-99.99,,,-99.99,,2013-01-20 23:23:00,
2013-01-20 14:33:00,-999.0,-99.9,29.86,ENE,60,15.0,20.0,-999,-99.99,,,-99.99,,2013-01-20 23:33:00,
2013-01-20 14:43:00,-999.0,-99.9,29.85,ENE,58,15.0,20.0,-999,-99.99,,,-99.99,,2013-01-20 23:43:00,
2013-01-20 14:53:00,-999.0,-99.9,29.85,ENE,58,15.0,20.0,-999,-99.99,,,-99.99,,2013-01-20 23:53:00,
2013-01-20 15:03:00,-999.0,-99.9,29.85,ENE,60,14.0,20.0,-999,-99.99,,,-99.99,,2013-01-21 00:03:00,
2013-01-20 15:13:00,-999.0,-99.9,29.85,ENE,66,16.0,19.0,-999,-99.99,,,-99.99,,2013-01-21 00:13:00,
2013-01-20 15:23:00,29.0,-99.9,29.85,ENE,67,15.0,23.0,-999,-99.99,,,-99.99,,2013-01-21 00:23:00,
2013-01-20 15:33:00,-999.0,-99.9,29.84,ENE,68,17.0,23.0,-999,-99.99,,,-99.99,,2013-01-21 00:33:00,
2013-01-20 15:43:00,-999.0,-99.9,29.84,ENE,64,15.0,21.0,-999,-99.99,,,-99.99,,2013-01-21 00:43:00,
2013-01-20 15:54:00,29.0,-99.9,29.84,ENE,65,14.0,25.0,-999,-99.99,,,-99.99,,2013-01-21 00:54:00,
2013-01-20 16:03:00,-999.0,-99.9,29.84,ENE,59,15.0,18.0,-999,-99.99,,,-99.99,,2013-01-21 01:03:00,
2013-01-20 16:13:00,30.0,-99.9,29.84,ENE,65,14.0,19.0,-999,-99.99,,,-99.99,,2013-01-21 01:13:00,
2013-01-20 16:23:00,-999.0,-99.9,29.84,ENE,61,14.0,21.0,-999,-99.99,,,-99.99,,2013-01-21 01:23:00,
2013-01-20 16:33:00,-999.0,-99.9,29.85,ENE,60,15.0,19.0,-999,-99.99,,,-99.99,,2013-01-21 01:33:00,
2013-01-20 16:43:00,-999.0,-99.9,29.85,ENE,62,15.0,21.0,-999,-99.99,,,-99.99,,2013-01-21 01:43:00,
2013-01-20 16:53:00,30.0,-99.9,29.85,ENE,57,15.0,20.0,-999,-99.99,,,-99.99,,2013-01-21 01:53:00,
2013-01-20 17:03:00,-999.0,-99.9,29.85,ENE,58,17.0,21.0,-999,-99.99,,,-99.99,,2013-01-21 02:03:00,
2013-01-20 17:13:00,-999.0,-99.9,29.85,ENE,58,17.0,22.0,-999,-99.99,,,-99.99,,2013-01-21 02:13:00,
2013-01-20 17:23:00,30.0,-99.9,29.85,ENE,58,18.0,21.0,-999,-99.99,,,-99.99,,2013-01-21 02:23:00,
2013-01-20 17:33:00,-999.0,-99.9,29.85,ENE,62,14.0,21.0,-999,-99.99,,,-99.99,,2013-01-21 02:33:00,
2013-01-20 17:43:00,30.0,-99.9,29.85,ENE,62,13.0,21.0,-999,-99.99,,,-99.99,,2013-01-21 02:43:00,
2013-01-20 17:53:00,-999.0,-99.9,29.86,ENE,66,12.0,18.0,-999,-99.99,,,-99.99,,2013-01-21 02:53:00,
2013-01-20 18:03:00,-999.0,-99.9,29.86,ENE,63,12.0,17.0,-999,-99.99,,,-99.99,,2013-01-21 03:03:00,
2013-01-20 18:13:00,-999.0,-99.9,29.86,ENE,66,12.0,16.0,-999,-99.99,,,-99.99,,2013-01-21 03:13:00,
2013-01-20 18:23:00,-999.0,-99.9,29.86,ENE,61,10.0,17.0,-999,-99.99,,,-99.99,,2013-01-21 03:23:00,
2013-01-20 18:33:00,-999.0,-99.9,29.86,ENE,62,10.0,15.0,-999,-99.99,,,-99.99,,2013-01-21 03:33:00,
2013-01-20 18:43:00,-999.0,-99.9,29.85,ENE,59,13.0,18.0,-999,-99.99,,,-99.99,,2013-01-21 03:43:00,
2013-01-20 18:54:00,31.0,-99.9,29.85,ENE,58,14.0,18.0,-999,-99.99,,,-99.99,,2013-01-21 03:54:00,
2013-01-20 19:03:00,-999.0,-99.9,29.84,NE,56,16.0,19.0,-999,-99.99,,,-99.99,,2013-01-21 04:03:00,
2013-01-20 19:13:00,31.0,-99.9,29.83,ENE,60,17.0,22.0,-999,-99.99,,,-99.99,,2013-01-21 04:13:00,
2013-01-20 19:23:00,-999.0,-99.9,29.84,ENE,65,11.0,17.0,-999,-99.99,,,-99.99,,2013-01-21 04:23:00,
2013-01-20 19:33:00,-999.0,-99.9,29.85,ENE,64,13.0,16.0,-999,-99.99,,,-99.99,,2013-01-21 04:33:00,
2013-01-20 19:43:00,31.0,-99.9,29.85,ENE,67,11.0,17.0,-999,-99.99,,,-99.99,,2013-01-21 04:43:00,
2013-01-20 19:53:00,-999.0,-99.9,29.86,ENE,71,10.0,14.0,-999,-99.99,,,-99.99,,2013-01-21 04:53:00,
2013-01-20 20:04:00,-999.0,-99.9,29.87,East,79,11.0,14.0,-999,-99.99,,,-99.99,,2013-01-21 05:04:00,
2013-01-20 20:13:00,-999.0,-99.9,29.87,East,82,9.0,12.0,-999,-99.99,,,-99.99,,2013-01-21 05:13:00,
2013-01-20 20:23:00,30.0,-99.9,29.87,ENE,75,12.0,14.0,-999,-99.99,,,-99.99,,2013-01-21 05:23:00,
2013-01-20 20:34:00,-999.0,-99.9,29.87,East,83,8.0,12.0,-999,-99.99,,,-99.99,,2013-01-21 05:34:00,
2013-01-20 20:43:00,-999.0,-99.9,29.88,ESE,106,6.0,10.0,-999,-99.99,,,-99.99,,2013-01-21 05:43:00,
2013-01-20 20:53:00,30.0,-99.9,29.88,ESE,116,4.0,6.0,-999,-99.99,,,-99.99,,2013-01-21 05:53:00,
2013-01-20 21:03:00,-999.0,-99.9,29.87,ENE,73,9.0,10.0,-999,-99.99,,,-99.99,,2013-01-21 06:03:00,
2013-01-20 21:13:00,29.0,-99.9,29.87,East,84,7.0,10.0,-999,-99.99,,,-99.99,,2013-01-21 06:13:00,
2013-01-20 21:23:00,-999.0,-99.9,29.87,ENE,74,8.0,10.0,-999,-99.99,,,-99.99,,2013-01-21 06:23:00,
2013-01-20 21:33:00,-999.0,-99.9,29.87,ENE,70,8.0,9.0,-999,-99.99,,,-99.99,,2013-01-21 06:33:00,
2013-01-20 21:43:00,-999.0,-99.9,29.87,ENE,77,6.0,10.0,-999,-99.99,,,-99.99,,2013-01-21 06:43:00,
2013-01-20 21:53:00,29.0,-99.9,29.88,ENE,75,4.0,9.0,-999,-99.99,,,-99.99,,2013-01-21 06:53:00,
2013-01-20 22:03:00,-999.0,-99.9,29.88,ENE,77,5.0,6.0,-999,-99.99,,,-99.99,,2013-01-21 07:03:00,
2013-01-20 22:13:00,-999.0,-99.9,29.88,ENE,77,9.0,13.0,-999,-99.99,,,-99.99,,2013-01-21 07:13:00,
2013-01-20 22:23:00,29.0,-99.9,29.87,ENE,78,9.0,13.0,-999,-99.99,,,-99.99,,2013-01-21 07:23:00,
2013-01-20 22:33:00,-999.0,-99.9,29.86,ENE,74,14.0,17.0,-999,-99.99,,,-99.99,,2013-01-21 07:33:00,
2013-01-20 22:43:00,30.0,-99.9,29.86,ENE,71,14.0,18.0,-999,-99.99,,,-99.99,,2013-01-21 07:43:00,
2013-01-20 22:53:00,-999.0,-99.9,29.86,ENE,70,16.0,19.0,-999,-99.99,,,-99.99,,2013-01-21 07:53:00,
2013-01-20 23:03:00,-999.0,-99.9,29.86,ENE,71,15.0,18.0,-999,-99.99,,,-99.99,,2013-01-21 08:03:00,
2013-01-20 23:14:00,-999.0,-99.9,29.86,ENE,71,13.0,18.0,-999,-99.99,,,-99.99,,2013-01-21 08:14:00,
2013-01-20 23:23:00,30.0,-99.9,29.87,ENE,71,13.0,17.0,-999,-99.99,,,-99.99,,2013-01-21 08:23:00,
2013-01-20 23:33:00,-999.0,-99.9,29.88,ENE,75,13.0,17.0,-999,-99.99,,,-99.99,,2013-01-21 08:33:00,
2013-01-20 23:43:00,-999.0,-99.9,29.88,ENE,75,13.0,16.0,-999,-99.99,,,-99.99,,2013-01-21 08:43:00,
2013-01-20 23:53:00,30.0,-99.9,29.88,ENE,72,13.0,16.0,-999,-99.99,,,-99.99,,2013-01-21 08:53:00,